Showing default

ASNARO, 40298

Orbit data source: Space-Track

ASNARO, 40298 is a payload satellite owned by J-spacesystems (JP) in SSO that was launched on Thu, 06 Nov 2014 UTC via a DNEPR launch vehicle from the Orenburg, Russia (OREN). Payload-class satellites include a variety of spacecraft equipped with specific instruments for various scientific and technological missions. These include communications satellites like Starlink; space stations such as the ISS; scientific satellites like the Hubble; Earth observation satellites from companies like Planet Labs, Umbra, and HawkEye 360; GPS; miniature CubeSats for education and research; and military/defense satellites.

Loading next visibility...
Identifier
40298, 2014-070A
Orbit
SSO
Country
Flag of JPJP / JPN
Related business
Manufacturer
NEC Toshiba/Fuchu
Mission
Operational Civil Imaging
Bus & Motor
NEXTAR-300L, AOCS?
Mass
495 kg wet, 450 kg dry
Launch date (UTC)
Icon of a cake. It is the launch day of the satellite!2014-11-06 (11 years ago)
Launch vehicle
DNEPR
Launch site
Orenburg, Russia (OREN)
Object type
Payload
Rocket body
Debris
Shape & HBR
Cyl + 2 Pan, 1.8 m
Radar Cross Section
9.327 m², Large (>1 m²)

Expand to show TLE details & history
Last TLE update: 19 hours ago

TLE from 19 hours ago
0 ASNARO
1 40298U 14070A   25309.26963043  .00011759  00000-0  55261-3 0  9992
2 40298  97.3694  26.1251 0005296 182.6192 177.5016 15.19737857610008
Epoch: 2025-11-05T06:28Z
TLE epoch observation values (Epoch: 2025-11-05T06:28:16.069Z)
Latitude
-0.00003°
Longitude
-115.68657°
Altitude
513.367 km
Speed
7.605 km/s
True Right ascension
01h 44m 30s
True Declination
0° 00' 00"
Sunlit
Object was in full shadow at epoch
Visualization orbit readout
Latitude
Unknown
Longitude
Unknown
Altitude
Unknown
Speed
Unknown
Apparent Right ascension
Unknown
Apparent Declination
Unknown
Sunlit
N/A
Visualization observer readout
Local Sidereal Time
21:50:32
Azimuth
Unknown
Elevation
Unknown
Doppler factor
Unknown
Orbital elements
Apogee altitude
507.241 km
Perigee altitude
499.952 km
Semi-major axis
6,881.734 km
Eccentricity
0.00053
Inclination
97.3694°
RAAN
26.1251°
Arg. of periapsis
182.6192°
True anomaly
177.50424°
Mean anomaly
177.5016°
Eccentric anomaly
177.50292°
Mean motion
3.80186 °/min
Orbital period
94.69 mins
BSTAR
0.00055261
Loading maneuver chart data...
Computing Atmospheric mass density...
Loading historical data...
Loading historical data...
Loading historical data...
Loading historical data...
Loading historical data...
Loading historical data...
Loading historical data...

Documentation

Showing up to 5 results
|